Weather History for Chesapeake, VA

Change the Weather History Date:

Tuesday, December 10, 2013

  Actual Average (KORF) Record (KORF)
Temperature  
Mean Temperature 40 °F 45 °F  
Max Temperature 48 °F 54 °F 78 °F (2007)
Min Temperature 32 °F 37 °F 11 °F (1876)
Degree Days  
Heating Degree Days 25 20  
Month to date heating degree days 184  
Since 1 July heating degree days 714  
Cooling Degree Days 0 0  
Month to date cooling degree days 0  
Year to date cooling degree days 1628  
Moisture  
Dew Point 41 °F    
Average Humidity 99    
Maximum Humidity 100    
Minimum Humidity 93    
Precipitation  
Precipitation 0.67 in 0.11 in 1.75 in (1882)
Month to date precipitation 1.06  
Year to date precipitation 44.33  
Snow  
Snow 0.00 in 0.00 in 1.00 in (1934)
Month to date snowfall 0.1  
Since 1 July snowfall 0.1  
Snow Depth -    
Sea Level Pressure  
Sea Level Pressure 30.07 in    
Wind  
Wind Speed 4 mph (NNW)    
Max Wind Speed 13 mph    
Max Gust Speed 18 mph    
Visibility 7 miles    
Events Rain    
T = Trace of Precipitation, MM = Missing Value Source: NWS Daily Summary

Daily Weather History Graph

Daily Weather History Graph

Search for Another Location

Airport:

Trip Planner

Search our weather history database for the weather conditions in past years. The results will help you decide how hot, cold, wet, or windy it might be!

Date:

Astronomy

Dec. 10, 2013 Rise Set
Actual Time 7:06 AM EST 4:49 PM EST
Civil Twilight 6:38 AM EST 5:18 PM EST
Nautical Twilight 6:05 AM EST 5:50 PM EST
Astronomical Twilight 5:34 AM EST 6:21 PM EST
Moon 12:41 PM EST (12/10) 12:31 AM EST (12/10)
Length of Visible Light 10h 40m
Length of Day
9h 42m
First Quarter, 61% of the Moon is Illuminated
Dec 10
First Quarter
Dec 17
Full
Dec 25
Last Quarter
Jan 1
New
Jan 7
First Quarter

Hourly Weather History & Observations

Time (EST) Temp. Windchill Dew Point Humidity Pressure Visibility Wind Dir Wind Speed Gust Speed Precip Events Conditions
12:15 AM 46.4 °F - 46.4 °F 100% 30.08 in 10.0 mi Calm Calm - N/A   Overcast
12:35 AM 46.4 °F - 46.4 °F 100% 30.08 in 7.0 mi Calm Calm - N/A   Overcast
12:55 AM 46.4 °F - 46.4 °F 100% 30.07 in 7.0 mi Calm Calm - N/A   Overcast
1:15 AM 46.4 °F - 46.4 °F 100% 30.05 in 7.0 mi Calm Calm - N/A   Overcast
1:35 AM 46.4 °F - 46.4 °F 100% 30.04 in 10.0 mi Calm Calm - N/A   Overcast
1:55 AM 46.4 °F - 46.4 °F 100% 30.05 in 10.0 mi Calm Calm - N/A   Overcast
2:15 AM 46.4 °F - 46.4 °F 100% 30.05 in 10.0 mi Calm Calm - N/A   Overcast
2:35 AM 46.4 °F - 46.4 °F 100% 30.04 in 10.0 mi Calm Calm - N/A   Overcast
2:55 AM 46.4 °F - 46.4 °F 100% 30.04 in 7.0 mi Calm Calm - N/A   Overcast
3:15 AM 46.4 °F 45.2 °F 46.4 °F 100% 30.02 in 7.0 mi SSE 3.5 mph - N/A   Light Drizzle
3:35 AM 46.4 °F - 46.4 °F 100% 30.02 in 5.0 mi Calm Calm - N/A Rain Light Rain
3:55 AM 48.2 °F - 46.4 °F 93% 30.01 in 7.0 mi Calm Calm - N/A Rain Rain
4:15 AM 46.4 °F - 46.4 °F 100% 30.01 in 7.0 mi Calm Calm - 0.02 in Rain Light Rain
4:35 AM 46.4 °F - 46.4 °F 100% 29.99 in 3.0 mi Calm Calm - 0.10 in Rain Heavy Rain
5:35 AM 46.4 °F 43.5 °F 46.4 °F 100% 29.99 in 7.0 mi NNW 5.8 mph - 0.16 in Rain Rain
5:55 AM 46.4 °F 42.9 °F 46.4 °F 100% 29.96 in 5.0 mi NNE 6.9 mph - N/A   Drizzle
6:15 AM 46.4 °F 42.4 °F 44.6 °F 93% 29.96 in 4.0 mi NE 8.1 mph - 0.05 in Rain Heavy Rain
6:35 AM 44.6 °F 42.2 °F 44.6 °F 100% 29.98 in 4.0 mi North 4.6 mph - 0.14 in Rain Heavy Rain
6:55 AM 44.6 °F 42.2 °F 44.6 °F 100% 29.99 in 7.0 mi NNE 4.6 mph - 0.02 in Rain Light Rain
7:15 AM 44.6 °F 42.2 °F 44.6 °F 100% 29.99 in 5.0 mi NNE 4.6 mph - 0.03 in   Heavy Drizzle
7:35 AM 44.6 °F 40.2 °F 44.6 °F 100% 30.01 in 5.0 mi North 8.1 mph - 0.04 in   Drizzle
7:55 AM 44.6 °F 39.2 °F 42.8 °F 93% 29.99 in 7.0 mi NNE 10.4 mph - N/A Rain Heavy Rain
8:15 AM 42.8 °F 38.0 °F 42.8 °F 100% 29.98 in 10.0 mi North 8.1 mph - 0.01 in Rain Light Rain
8:35 AM 42.8 °F 38.6 °F 42.8 °F 100% 29.99 in 4.0 mi North 6.9 mph - 0.05 in Rain Heavy Rain
8:55 AM 42.8 °F 38.0 °F 42.8 °F 100% 29.98 in 7.0 mi NNE 8.1 mph - 0.01 in Rain Light Rain
9:15 AM 42.8 °F 38.6 °F 42.8 °F 100% 29.97 in 7.0 mi NNE 6.9 mph - 0.02 in Rain Light Rain
9:35 AM 42.8 °F 37.5 °F 42.8 °F 100% 29.97 in 7.0 mi NNE 9.2 mph - 0.02 in   Overcast
9:55 AM 41.0 °F 35.2 °F 41.0 °F 100% 29.96 in 7.0 mi NNE 9.2 mph - N/A Rain Light Rain
10:15 AM 41.0 °F 34.7 °F 39.2 °F 93% 29.94 in 5.0 mi NNE 10.4 mph - N/A   Light Drizzle
10:35 AM 41.0 °F 36.4 °F 39.2 °F 93% 29.95 in 3.0 mi North 6.9 mph - 0.01 in Rain Rain
10:55 AM 41.0 °F 35.8 °F 39.2 °F 93% 29.96 in 4.0 mi North 8.1 mph - 0.01 in Rain Rain
11:15 AM 41.0 °F 35.8 °F 39.2 °F 93% 29.94 in 4.0 mi North 8.1 mph - 0.01 in   Overcast
11:35 AM 41.0 °F 34.7 °F 39.2 °F 93% 29.93 in 7.0 mi North 10.4 mph - 0.02 in   Drizzle
11:55 AM 39.2 °F 33.0 °F 39.2 °F 100% 29.96 in 7.0 mi NNW 9.2 mph 16.1 mph N/A Rain Rain
12:15 PM 39.2 °F 33.6 °F 39.2 °F 100% 29.96 in 5.0 mi North 8.1 mph 16.1 mph 0.02 in Rain Rain
12:35 PM 39.2 °F 32.5 °F 39.2 °F 100% 29.94 in 7.0 mi North 10.4 mph 18.4 mph 0.05 in Rain Light Rain
12:55 PM 39.2 °F 32.5 °F 39.2 °F 100% 29.95 in 5.0 mi North 10.4 mph 17.3 mph 0.01 in Rain Rain
1:15 PM 39.2 °F 35.9 °F 39.2 °F 100% 29.95 in 4.0 mi North 4.6 mph - 0.04 in Rain Rain
1:35 PM 39.2 °F 33.0 °F 39.2 °F 100% 29.98 in 5.0 mi NNW 9.2 mph - 0.08 in Rain Rain
1:55 PM 39.2 °F 35.9 °F 39.2 °F 100% 29.99 in 10.0 mi NNW 4.6 mph - N/A Rain Light Rain
2:15 PM 39.2 °F 33.0 °F 39.2 °F 100% 30.01 in 7.0 mi NNW 9.2 mph - N/A   Overcast
2:35 PM 39.2 °F 33.6 °F 39.2 °F 100% 30.02 in 7.0 mi NNW 8.1 mph - N/A   Overcast
2:55 PM 39.2 °F 31.6 °F 39.2 °F 100% 30.04 in 10.0 mi NW 12.7 mph 16.1 mph N/A   Overcast
3:15 PM 39.2 °F 32.5 °F 39.2 °F 100% 30.05 in 10.0 mi NW 10.4 mph 17.3 mph N/A   Overcast
3:35 PM 39.2 °F 33.0 °F 39.2 °F 100% 30.06 in 10.0 mi NNW 9.2 mph 17.3 mph N/A   Overcast
3:55 PM 39.2 °F 33.0 °F 39.2 °F 100% 30.07 in 10.0 mi NNW 9.2 mph - N/A   Overcast
4:15 PM 39.2 °F 34.2 °F 39.2 °F 100% 30.09 in 10.0 mi NNW 6.9 mph 16.1 mph N/A   Overcast
4:35 PM 39.2 °F 32.5 °F 39.2 °F 100% 30.11 in 10.0 mi NW 10.4 mph - N/A   Overcast
4:55 PM 39.2 °F 34.2 °F 39.2 °F 100% 30.13 in 10.0 mi NW 6.9 mph - N/A   Overcast
5:15 PM 39.2 °F 34.2 °F 39.2 °F 100% 30.14 in 10.0 mi NW 6.9 mph - N/A   Overcast
5:35 PM 39.2 °F 34.2 °F 39.2 °F 100% 30.16 in 10.0 mi WNW 6.9 mph - N/A   Overcast
5:55 PM 39.2 °F 35.0 °F 37.4 °F 93% 30.16 in 10.0 mi NW 5.8 mph - N/A   Overcast
6:15 PM 39.2 °F 35.9 °F 37.4 °F 93% 30.18 in 10.0 mi WNW 4.6 mph - N/A   Overcast
6:35 PM 39.2 °F - 37.4 °F 93% 30.19 in 10.0 mi Calm Calm - N/A   Overcast
6:55 PM 39.2 °F - 37.4 °F 93% 30.20 in 10.0 mi Calm Calm - N/A   Mostly Cloudy
7:15 PM 37.4 °F - 37.4 °F 100% 30.21 in 10.0 mi Calm Calm - N/A   Mostly Cloudy
7:35 PM 37.4 °F - 37.4 °F 100% 30.22 in 10.0 mi Calm Calm - N/A   Mostly Cloudy
7:55 PM 39.2 °F - 37.4 °F 93% 30.23 in 10.0 mi Calm Calm - N/A   Overcast
8:15 PM 35.6 °F - 35.6 °F 100% 30.24 in 7.0 mi Calm Calm - N/A   Overcast
8:35 PM 37.4 °F - 37.4 °F 100% 30.24 in 10.0 mi Calm Calm - N/A   Mostly Cloudy
8:55 PM 37.4 °F - 37.4 °F 100% 30.25 in 5.0 mi Calm Calm - N/A   Mostly Cloudy
9:15 PM 35.6 °F - 35.6 °F 100% 30.26 in 3.0 mi Calm Calm - N/A   Mostly Cloudy
9:35 PM 35.6 °F - 35.6 °F 100% 30.26 in 7.0 mi Calm Calm - N/A   Scattered Clouds
9:55 PM 35.6 °F - 35.6 °F 100% 30.27 in 1.5 mi Calm Calm - N/A   Mostly Cloudy
10:15 PM 33.8 °F - 33.8 °F 100% 30.28 in 1.8 mi Calm Calm - N/A   Mostly Cloudy
10:35 PM 32.0 °F 28.7 °F 32.0 °F 100% 30.28 in 3.0 mi SSW 3.5 mph - N/A   Clear
10:55 PM 33.8 °F - 33.8 °F 100% 30.28 in 5.0 mi Calm Calm - N/A   Clear
11:15 PM 33.8 °F 28.6 °F 33.8 °F 100% 30.29 in 10.0 mi West 5.8 mph - N/A   Clear
11:35 PM 33.8 °F - 33.8 °F 100% 30.30 in 10.0 mi Calm Calm - N/A   Clear
11:55 PM 33.8 °F 28.6 °F 32.0 °F 93% 30.31 in 10.0 mi West 5.8 mph - N/A   Clear